IRIDIUM 110

Last updated on Sun Jun 21 2026 00:03:14 GMT+0000 (Coordinated Universal Time)

1 43481U 18047F 26171.32386912 .00000167 00000+0 52403-4 0 9992 2 43481 86.3960 87.1182 0002538 80.8268 279.3215 14.34218484422928
UTC large
Height (km)
Speed (km/s)
/
Latitude / Longitude
Inclination (degrees)
Orbital Period (minutes)
Azimuth
Elevation
Range (km)
Doppler Factor

Next 0 passes for location: London (51.5072 / 0.1276)

No passes found over London.
IRIDIUM 110